Content
SEND FEEDBACK

Daily
Averages
Monthly
Summary
United States of America

ANN ARBOR, MICHIGAN


Home > North America > United States > Michigan
Elevation: 759 feet     Latitude: 42 17N     Longitude: 083 43W

WEATHER
 
SELECT A DAY
Number of Records: 204,337;   Date Range: 1/1/95 - 9/16/14
 
SHARE

PRINT THIS DATA

[ ← Previous Day ]
WEATHER ALMANAC - APRIL 16, 2014
[ Next Day → ]
[ °C ]   °F
Weather ElementAverageHighLow
Temperature30.6 °F41 °F (2:53 pm)18 °F (3:53 am)
Dewpoint18.2 °F24.1 °F (6:53 pm)10.9 °F (10:53 am)
Humidity63.1 %88 % (3:53 am)38 % (10:53 am)
Barometer30.40 in30.47 in (11:53 am)30.29 in (1:53 am)
Wind Speed5.9 mph15 mph (4:53 pm)
Wind Gust21.9 mph (4:53 pm)
Weather ElementAverage
Visibility9.9 mi
Wind DirectionE (94.1 °)

Weather ElementTotal
Precipitation---
Heating Degree Days35.5 (Base 65)
Averaged from 22 records on April 16, 2014
WEATHER CONDITIONS BREAKOUT
WIND DIRECTION BREAKOUT
WEATHER BY HOUR - APRIL 16, 2014
[ °C ]   °F
Local TimeTemperatureDewpointHumidityBarometerVisibilityWind DirectionWind SpeedGust SpeedPrecipitationEventsConditions
1:53 AM19.0 °F15.1 °F85 %30.29 in10.0 miCalmClear
2:53 AM19.9 °F16.0 °F85 %30.29 in10.0 miCalmClear
3:53 AM18.0 °F15.1 °F88 %30.32 in10.0 miCalmClear
4:53 AM18.0 °F15.1 °F88 %30.34 in8.0 miCalmClear
5:53 AM19.0 °F15.1 °F85 %30.37 in10.0 miCalmClear
6:53 AM18.0 °F15.1 °F88 %30.40 in10.0 miCalmClear
7:53 AM21.0 °F17.1 °F85 %30.43 in10.0 miCalmClear
8:53 AM27.0 °F23.0 °F85 %30.44 in10.0 miCalmClear
9:53 AM32.0 °F12.0 °F44 %30.46 in10.0 miSouth (180°)5.8 mphClear
10:53 AM34.0 °F10.9 °F38 %30.46 in10.0 miSouth (180°)8.1 mphClear
11:53 AM36.0 °F14.0 °F41 %30.47 in10.0 miSW (220°)8.1 mphClear
12:53 PM37.9 °F16.0 °F41 %30.46 in10.0 miSouth (170°)4.6 mphClear
2:53 PM41.0 °F19.0 °F41 %30.42 in10.0 miSouth (170°)10.4 mphClear
3:53 PM41.0 °F19.9 °F43 %30.42 in10.0 miSouth (180°)10.4 mph19.6 mphClear
4:53 PM41.0 °F21.0 °F45 %30.40 in10.0 miSSE (160°)15.0 mph21.9 mphClear
5:53 PM41.0 °F21.9 °F47 %30.40 in10.0 miSE (140°)11.5 mphClear
6:53 PM39.9 °F24.1 °F53 %30.39 in10.0 miSE (130°)10.4 mphClear
7:53 PM37.0 °F23.0 °F57 %30.39 in10.0 miESE (110°)9.2 mphClear
8:53 PM35.1 °F21.9 °F59 %30.40 in10.0 miESE (120°)8.1 mphClear
9:53 PM34.0 °F21.9 °F61 %30.40 in10.0 miEast (100°)9.2 mphClear
10:53 PM32.0 °F21.0 °F64 %30.40 in10.0 miESE (110°)11.5 mphClear
11:53 PM32.0 °F21.9 °F66 %30.38 in10.0 miEast (100°)8.1 mphClear
Hourly data recorded from KARB, located miles away from Ann Arbor, Michigan







STORIES FROM OUR PARTNERS